This is the latest recevied weather packets stored in our database for station/object WA1NHP. If no packets are shown the sender has not sent any weather packets the latest 10 day(s).
| Time | Temp. | Humidity | Pressure | Rain* | Wind** | Luminosity | Snow |
|---|---|---|---|---|---|---|---|
| 1777067644 | 12.22° C | 36% | 1023.9 hPa | 0 mm | - | 109 W/m² | - |
| 1777067043 | 12.22° C | 35% | 1023.9 hPa | 0 mm | - | 135 W/m² | - |
| 1777066444 | 12.78° C | 36% | 1023.9 hPa | 0 mm | - | 123 W/m² | - |
| 1777065844 | 12.22° C | 35% | 1023.9 hPa | 0 mm | - | 239 W/m² | - |
| 1777065244 | 12.22° C | 35% | 1023.9 hPa | 0 mm | - | 206 W/m² | - |
| 1777064644 | 12.22° C | 36% | 1023.9 hPa | 0 mm | - | 42 W/m² | - |
| 1777064043 | 12.78° C | 34% | 1023.9 hPa | 0 mm | - | 53 W/m² | - |
| 1777063444 | 12.22° C | 35% | 1023.9 hPa | 0 mm | - | 223 W/m² | - |
| 1777062844 | 13.33° C | 34% | 1023.9 hPa | 0 mm | - | 65 W/m² | - |
| 1777062244 | 12.78° C | 34% | 1023.9 hPa | 0 mm | - | 165 W/m² | - |
| 1777061644 | 13.33° C | 33% | 1023.9 hPa | 0 mm | - | 599 W/m² | - |
| 1777061044 | 13.33° C | 35% | 1023.9 hPa | 0 mm | - | 629 W/m² | - |
| 1777060444 | 13.33° C | 35% | 1023.9 hPa | 0 mm | - | 657 W/m² | - |
| 1777059844 | 12.78° C | 35% | 1023.9 hPa | 0 mm | - | 691 W/m² | - |
| 1777059243 | 12.22° C | 33% | 1023.9 hPa | 0 mm | - | 223 W/m² | - |
| 1777058643 | 12.78° C | 35% | 1023.9 hPa | 0 mm | - | 738 W/m² | - |
| 1777058044 | 12.22° C | 35% | 1023.9 hPa | 0 mm | - | 761 W/m² | - |
| 1777057444 | 13.89° C | 38% | 1023.9 hPa | 0 mm | - | 788 W/m² | - |
| 1777056844 | 12.22° C | 33% | 1023.9 hPa | 0 mm | - | 812 W/m² | - |
| 1777056243 | 12.78° C | 35% | 1023.9 hPa | 0 mm | - | 835 W/m² | - |
| 1777055644 | 12.22° C | 34% | 1023.9 hPa | 0 mm | - | 854 W/m² | - |
| 1777055044 | 12.78° C | 33% | 1023.9 hPa | 0 mm | - | 877 W/m² | - |
| 1777054443 | 12.78° C | 34% | 1023.9 hPa | 0 mm | - | 895 W/m² | - |
| 1777053844 | 12.22° C | 36% | 1023.9 hPa | 0 mm | - | 907 W/m² | - |
| 1777053244 | 11.67° C | 35% | 1023.9 hPa | 0 mm | - | 926 W/m² | - |
* Rain latest hour (hover to see other rain measurements)
** Current wind speed in m/s (hover to see current wind gust speed)